Content
SEND FEEDBACK

Daily
Averages
Monthly
Summary
United States of America

MCKINLEY PARK, ALASKA


Home > North America > United States > Alaska
Elevation: 2070 feet     Latitude: 63 43N     Longitude: 148 58W

WEATHER
 
SELECT A DAY
Number of Records: 421,701;   Date Range: 11/7/95 - 10/23/14
 
SHARE

PRINT THIS DATA

[ ← Previous Day ]
WEATHER ALMANAC - JANUARY 23, 2013
[ Next Day → ]
[ °C ]   °F
Weather ElementAverageHighLow
Temperature-1.6 °F3.2 °F (1:56 pm)-9.4 °F (12:36 am)
Dewpoint-4.6 °F-0.4 °F (12:56 pm)-13 °F (12:36 am)
Humidity87.2 %92 % (1:36 am)78 % (4:16 am)
Barometer29.48 in29.55 in (12:36 am)29.44 in (2:36 pm)
Wind Speed3.9 mph12.7 mph (11:36 pm)
Wind Gust19.6 mph (11:36 pm)
Weather ElementAverage
Visibility9.9 mi
Wind DirectionE (84.4 °)

Weather ElementTotal
Precipitation---
Heating Degree Days68.1 (Base 65)
Averaged from 71 records on January 23, 2013
WEATHER CONDITIONS BREAKOUT
WIND DIRECTION BREAKOUT
WEATHER BY HOUR - JANUARY 23, 2013
[ °C ]   °F
Local TimeTemperatureDewpointHumidityBarometerVisibilityWind DirectionWind SpeedGust SpeedPrecipitationEventsConditions
12:36 AM-9.4 °F-13.0 °F84 %29.55 in10.0 miCalmClear
12:56 AM-9.4 °F-13.0 °F84 %29.55 in10.0 miCalmClear
1:16 AM-9.4 °F-13.0 °F84 %29.55 in10.0 miCalmClear
1:36 AM-9.4 °F-11.2 °F92 %29.55 in10.0 miCalmMostly Cloudy
1:56 AM-7.6 °F-9.4 °F92 %29.54 in10.0 miCalmOvercast
2:16 AM-5.8 °F-9.4 °F84 %29.54 in10.0 miCalmOvercast
2:36 AM-5.8 °F-9.4 °F84 %29.53 in10.0 miCalmOvercast
2:56 AM-5.8 °F-7.6 °F92 %29.53 in10.0 miCalmOvercast
3:16 AM-5.8 °F-7.6 °F92 %29.53 in10.0 miCalmOvercast
3:36 AM-4.0 °F-5.8 °F92 %29.52 in10.0 miCalmOvercast
3:56 AM-2.2 °F-5.8 °F85 %29.52 in10.0 miCalmOvercast
4:16 AM-2.2 °F-7.6 °F78 %29.52 in10.0 miCalmOvercast
4:36 AM-4.0 °F-7.6 °F85 %29.52 in10.0 miCalmOvercast
4:56 AM-4.0 °F-7.6 °F85 %29.52 in10.0 miCalmMostly Cloudy
5:16 AM-4.0 °F-7.6 °F85 %29.51 in10.0 miCalmMostly Cloudy
5:36 AM-2.2 °F-5.8 °F85 %29.51 in10.0 miCalmOvercast
5:56 AM-2.2 °F-4.0 °F92 %29.51 in10.0 miCalmOvercast
6:16 AM-0.4 °F-2.2 °F92 %29.51 in10.0 miCalmOvercast
6:36 AM-0.4 °F-2.2 °F92 %29.50 in10.0 miCalmOvercast
6:56 AM1.4 °F-2.2 °F85 %29.50 in10.0 miCalmOvercast
7:16 AM-0.4 °F-2.2 °F92 %29.50 in10.0 miCalmOvercast
7:36 AM-0.4 °F-2.2 °F92 %29.49 in10.0 miCalmOvercast
7:56 AM-0.4 °F-2.2 °F92 %29.49 in10.0 miCalmOvercast
8:16 AM-0.4 °F-4.0 °F85 %29.48 in10.0 miCalmOvercast
8:36 AM-0.4 °F-4.0 °F85 %29.48 in10.0 miCalmOvercast
8:56 AM-2.2 °F-5.8 °F85 %29.48 in10.0 miCalmMostly Cloudy
9:16 AM-2.2 °F-5.8 °F85 %29.48 in10.0 miCalmMostly Cloudy
9:36 AM-2.2 °F-5.8 °F85 %29.48 in10.0 miCalmMostly Cloudy
9:56 AM-2.2 °F-5.8 °F85 %29.48 in10.0 miCalmPartly Cloudy
10:16 AM-2.2 °F-5.8 °F85 %29.48 in10.0 miCalmPartly Cloudy
10:36 AM-4.0 °F-5.8 °F92 %29.48 in10.0 miCalmMostly Cloudy
10:56 AM-2.2 °F-5.8 °F85 %29.48 in10.0 miCalmMostly Cloudy
11:16 AM-2.2 °F-4.0 °F92 %29.47 in10.0 miCalmMostly Cloudy
11:36 AM-0.4 °F-2.2 °F92 %29.47 in10.0 miCalmOvercast
11:56 AM1.4 °F-2.2 °F85 %29.47 in10.0 miCalmMostly Cloudy
12:16 PM-0.4 °F-2.2 °F92 %29.47 in10.0 miCalmScattered Clouds
12:36 PM1.4 °F-2.2 °F85 %29.47 in10.0 miNNE (30°)3.5 mphMostly Cloudy
12:56 PM1.4 °F-0.4 °F92 %29.47 in10.0 miNNE (20°)3.5 mphOvercast
1:16 PM1.4 °F-0.4 °F92 %29.46 in10.0 miCalmOvercast
1:36 PM1.4 °F-0.4 °F92 %29.46 in10.0 miCalmOvercast
1:56 PM3.2 °F-0.4 °F85 %29.45 in10.0 miCalmOvercast
2:16 PM1.4 °F-0.4 °F92 %29.45 in10.0 miNNE (20°)4.6 mphOvercast
2:36 PM1.4 °F-0.4 °F92 %29.44 in10.0 miNNE (30°)4.6 mphOvercast
2:56 PM1.4 °F-0.4 °F92 %29.44 in10.0 miNorth (10°)5.8 mphOvercast
3:16 PM1.4 °F-0.4 °F92 %29.44 in10.0 miNorth (360°)6.9 mphOvercast
3:36 PM1.4 °F-2.2 °F85 %29.44 in10.0 miNorth (10°)9.2 mphOvercast
3:56 PM1.4 °F-2.2 °F85 %29.44 in10.0 miNorth (360°)9.2 mphOvercast
4:16 PM1.4 °F-2.2 °F85 %29.44 in10.0 miNorth (360°)9.2 mphOvercast
4:36 PM1.4 °F-2.2 °F85 %29.44 in10.0 miNorth (10°)8.1 mphOvercast
4:56 PM1.4 °F-2.2 °F85 %29.44 in10.0 miNorth (360°)9.2 mphOvercast
5:16 PM1.4 °F-2.2 °F85 %29.44 in10.0 miNorth (360°)10.4 mphOvercast
5:36 PM1.4 °F-2.2 °F85 %29.44 in10.0 miNorth (360°)9.2 mphOvercast
5:56 PM1.4 °F-2.2 °F85 %29.44 in10.0 miNorth (10°)5.8 mphOvercast
6:16 PM1.4 °F-2.2 °F85 %29.44 in10.0 miNorth (360°)6.9 mphOvercast
6:36 PM-0.4 °F-2.2 °F92 %29.45 in10.0 miNNE (20°)5.8 mphOvercast
6:56 PM-0.4 °F-2.2 °F92 %29.45 in10.0 miNorth (360°)8.1 mphOvercast
7:16 PM-0.4 °F-2.2 °F92 %29.44 in10.0 miNorth (360°)8.1 mphOvercast
7:36 PM-0.4 °F-2.2 °F92 %29.44 in10.0 miNorth (360°)10.4 mphOvercast
7:56 PM-0.4 °F-4.0 °F85 %29.44 in10.0 miNorth (10°)9.2 mph16.1 mphOvercast
8:16 PM-0.4 °F-4.0 °F85 %29.44 in10.0 miNorth (360°)11.5 mph16.1 mphOvercast
8:36 PM-0.4 °F-4.0 °F85 %29.45 in10.0 miNorth (10°)10.4 mphOvercast
8:56 PM-0.4 °F-4.0 °F85 %29.45 in10.0 miNorth (360°)9.2 mphOvercast
9:16 PM-2.2 °F-5.8 °F85 %29.45 in10.0 miNorth (360°)8.1 mph18.4 mphOvercast
9:36 PM-2.2 °F-5.8 °F85 %29.45 in10.0 miNorth (10°)9.2 mphOvercast
9:56 PM-2.2 °F-5.8 °F85 %29.45 in10.0 miNorth (10°)9.2 mphOvercast
10:16 PM-2.2 °F-5.8 °F85 %29.46 in10.0 miNorth (360°)10.4 mph17.3 mphOvercast
10:36 PM-2.2 °F-5.8 °F85 %29.46 in10.0 miNorth (10°)10.4 mphOvercast
10:56 PM-2.2 °F-5.8 °F85 %29.46 in10.0 miNorth (10°)11.5 mph16.1 mphOvercast
11:16 PM-2.2 °F-7.6 °F78 %29.46 in10.0 miNorth (360°)11.5 mph18.4 mphOvercast
11:36 PM-2.2 °F-7.6 °F78 %29.47 in7.0 miNorth (10°)12.7 mph19.6 mphOvercast
11:56 PM-4.0 °F-7.6 °F85 %29.47 in5.0 miNorth (360°)12.7 mph18.4 mphOvercast
Hourly data recorded from PAIN, located miles away from McKinley Park, Alaska







STORIES FROM OUR PARTNERS